DAL1032 KMSP-KATL

Flight info

Callsign DAL1032
Flight time 1h 59m
Altitude 37000
Route ZMBRO7 ODI J30 BRIBE/N0450F360 EDENS/N0449F370 ENL PLESS J45 BNA NEWBB IHAVE MTHEW CHPPR1
Aircraft B739/M-SDE2E3FGHIRWXY/LB1

Departure

Time 2026-05-05 00:23
Airport Minneapolis–Saint Paul International Airport / Wold–Chamberlain Field (KMSP)

Arrival

Time 2026-05-05 02:23
Airport Hartsfield Jackson Atlanta International Airport (KATL)
Time Latitude Longitude Altitude Speed Heading
2026-05-04 22:41 44.87909 -93.20715 817 ft 0 kts 31°
2026-05-05 00:17 44.87904 -93.20720 816 ft 2 kts 31°
2026-05-05 00:17 44.87891 -93.20731 816 ft 2 kts 32°
2026-05-05 00:17 44.87878 -93.20742 816 ft 2 kts 46°
2026-05-05 00:18 44.87870 -93.20760 816 ft 2 kts 69°
2026-05-05 00:18 44.87867 -93.20780 816 ft 2 kts 91°
2026-05-05 00:18 44.87868 -93.20791 816 ft 1 kts 105°
2026-05-05 00:18 44.87869 -93.20797 816 ft 0 kts 102°
2026-05-05 00:20 44.87867 -93.20790 816 ft 3 kts 110°
2026-05-05 00:20 44.87838 -93.20752 815 ft 8 kts 139°
2026-05-05 00:21 44.87793 -93.20661 814 ft 11 kts 121°
2026-05-05 00:21 44.87752 -93.20567 813 ft 11 kts 122°
2026-05-05 00:21 44.87709 -93.20469 811 ft 12 kts 122°
2026-05-05 00:21 44.87663 -93.20363 809 ft 12 kts 121°
2026-05-05 00:22 44.87617 -93.20256 808 ft 12 kts 121°
2026-05-05 00:22 44.87579 -93.20174 808 ft 8 kts 139°
2026-05-05 00:22 44.87517 -93.20187 808 ft 10 kts 206°
2026-05-05 00:22 44.87456 -93.20240 808 ft 11 kts 229°
2026-05-05 00:23 44.87486 -93.20429 808 ft 40 kts 301°
2026-05-05 00:23 44.87769 -93.21080 820 ft 113 kts 301°
2026-05-05 00:23 44.88296 -93.22292 951 ft 164 kts 303°
2026-05-05 00:23 44.88898 -93.23707 1670 ft 180 kts 296°
2026-05-05 00:24 44.89162 -93.25625 1887 ft 230 kts 273°
2026-05-05 00:24 44.88824 -93.27950 2653 ft 257 kts 251°
2026-05-05 00:24 44.87695 -93.29972 3695 ft 279 kts 220°
2026-05-05 00:24 44.85851 -93.30877 4848 ft 295 kts 187°
2026-05-05 00:25 44.83836 -93.30305 5918 ft 308 kts 155°
2026-05-05 00:25 44.82208 -93.28397 6928 ft 315 kts 129°
2026-05-05 00:25 44.80953 -93.25851 7830 ft 324 kts 123°
2026-05-05 00:25 44.79652 -93.23155 8507 ft 339 kts 127°
2026-05-05 00:26 44.78178 -93.20511 9287 ft 347 kts 132°
2026-05-05 00:26 44.76582 -93.17968 10008 ft 353 kts 135°
2026-05-05 00:26 44.74893 -93.15433 10714 ft 358 kts 137°
2026-05-05 00:26 44.73166 -93.12894 11404 ft 364 kts 137°
2026-05-05 00:27 44.71419 -93.10325 12181 ft 366 kts 138°
2026-05-05 00:27 44.69687 -93.07766 12864 ft 371 kts 138°
2026-05-05 00:27 44.67898 -93.05114 13471 ft 378 kts 139°
2026-05-05 00:27 44.66085 -93.02422 14052 ft 384 kts 139°
2026-05-05 00:28 44.64250 -92.99689 14780 ft 386 kts 140°
2026-05-05 00:28 44.62403 -92.96939 15397 ft 391 kts 140°
2026-05-05 00:28 44.60547 -92.94178 15971 ft 396 kts 140°
2026-05-05 00:28 44.58643 -92.91351 16574 ft 401 kts 141°
2026-05-05 00:29 44.56738 -92.88522 17221 ft 403 kts 141°
2026-05-05 00:29 44.54778 -92.85616 17785 ft 408 kts 141°
2026-05-05 00:29 44.52823 -92.82720 18340 ft 413 kts 142°
2026-05-05 00:29 44.50853 -92.79803 18944 ft 416 kts 142°
2026-05-05 00:30 44.48880 -92.76884 19564 ft 418 kts 142°
2026-05-05 00:30 44.46941 -92.73825 20147 ft 425 kts 137°
2026-05-05 00:30 44.45165 -92.70490 20807 ft 430 kts 131°
2026-05-05 00:30 44.43534 -92.66995 21329 ft 436 kts 129°
2026-05-05 00:31 44.41942 -92.63341 21861 ft 440 kts 128°
2026-05-05 00:31 44.40379 -92.59650 22407 ft 443 kts 127°
2026-05-05 00:31 44.38817 -92.55937 22908 ft 446 kts 128°
2026-05-05 00:31 44.37249 -92.52219 23460 ft 448 kts 128°
2026-05-05 00:32 44.35653 -92.48451 24001 ft 449 kts 128°
2026-05-05 00:32 44.34063 -92.44727 24364 ft 455 kts 128°
2026-05-05 00:32 44.32430 -92.40915 24895 ft 457 kts 128°
2026-05-05 00:32 44.30791 -92.37097 25331 ft 460 kts 128°
2026-05-05 00:33 44.29148 -92.33285 25728 ft 464 kts 129°
2026-05-05 00:33 44.27487 -92.29444 26175 ft 465 kts 129°
2026-05-05 00:33 44.25818 -92.25581 26742 ft 464 kts 128°
2026-05-05 00:33 44.24157 -92.21729 27264 ft 463 kts 128°
2026-05-05 00:34 44.22488 -92.17881 27683 ft 464 kts 129°
2026-05-05 00:34 44.20840 -92.14081 28141 ft 464 kts 128°
2026-05-05 00:34 44.19155 -92.10206 28570 ft 465 kts 128°
2026-05-05 00:34 44.17475 -92.06361 28973 ft 466 kts 129°
2026-05-05 00:35 44.15806 -92.02557 29352 ft 467 kts 128°
2026-05-05 00:35 44.14103 -91.98686 29723 ft 468 kts 128°
2026-05-05 00:35 44.12420 -91.94849 30121 ft 469 kts 129°
2026-05-05 00:35 44.10717 -91.90971 30444 ft 471 kts 128°
2026-05-05 00:36 44.09004 -91.87081 30847 ft 471 kts 128°
2026-05-05 00:36 44.07272 -91.83131 31203 ft 472 kts 128°
2026-05-05 00:36 44.05579 -91.79251 31695 ft 469 kts 128°
2026-05-05 00:36 44.03880 -91.75357 32179 ft 466 kts 128°
2026-05-05 00:37 44.02193 -91.71514 32677 ft 462 kts 128°
2026-05-05 00:37 44.00516 -91.67720 33046 ft 461 kts 128°
2026-05-05 00:37 43.98863 -91.63990 33562 ft 455 kts 128°
2026-05-05 00:37 43.97212 -91.60261 34007 ft 452 kts 128°
2026-05-05 00:38 43.95549 -91.56512 34203 ft 455 kts 128°
2026-05-05 00:38 43.92139 -91.48993 34188 ft 469 kts 130°
2026-05-05 00:39 43.88057 -91.41822 34156 ft 476 kts 140°
2026-05-05 00:39 43.83376 -91.35255 34372 ft 484 kts 142°
2026-05-05 00:39 43.80969 -91.31993 34605 ft 485 kts 144°
2026-05-05 00:40 43.78550 -91.28715 34777 ft 488 kts 143°
2026-05-05 00:40 43.76165 -91.25469 35043 ft 486 kts 142°
2026-05-05 00:40 43.73735 -91.22143 35221 ft 488 kts 142°
2026-05-05 00:40 43.71359 -91.18876 35388 ft 490 kts 142°
2026-05-05 00:41 43.68926 -91.15523 35554 ft 491 kts 142°
2026-05-05 00:41 43.66538 -91.12219 35779 ft 491 kts 141°
2026-05-05 00:41 43.64126 -91.08873 35972 ft 491 kts 141°
2026-05-05 00:41 43.61720 -91.05537 36087 ft 493 kts 141°
2026-05-05 00:42 43.59288 -91.02168 36206 ft 495 kts 141°
2026-05-05 00:42 43.56876 -90.98827 36378 ft 495 kts 141°
2026-05-05 00:42 43.54458 -90.95480 36573 ft 496 kts 141°
2026-05-05 00:43 43.49579 -90.88737 36651 ft 497 kts 141°
2026-05-05 00:43 43.44714 -90.82021 36661 ft 494 kts 141°
2026-05-05 00:44 43.39869 -90.75352 36680 ft 493 kts 141°
2026-05-05 00:44 43.35060 -90.68759 36672 ft 491 kts 141°
2026-05-05 00:45 43.30224 -90.62141 36685 ft 491 kts 141°
2026-05-05 00:45 43.25380 -90.55534 36678 ft 491 kts 141°
2026-05-05 00:46 43.20521 -90.48916 36683 ft 490 kts 141°
2026-05-05 00:46 43.15716 -90.42382 36678 ft 488 kts 140°
2026-05-05 00:47 43.10881 -90.35828 36664 ft 487 kts 140°
2026-05-05 00:47 43.06078 -90.29334 36667 ft 486 kts 141°
2026-05-05 00:48 43.01282 -90.22868 36671 ft 486 kts 141°
2026-05-05 00:48 42.96483 -90.16406 36675 ft 485 kts 141°
2026-05-05 00:49 42.91673 -90.09943 36671 ft 484 kts 141°
2026-05-05 00:49 42.86874 -90.03515 36662 ft 482 kts 141°
2026-05-05 00:50 42.81832 -89.97718 36650 ft 469 kts 155°
2026-05-05 00:50 42.78894 -89.95869 36655 ft 455 kts 169°
2026-05-05 00:50 42.75866 -89.94929 36657 ft 446 kts 180°
2026-05-05 00:51 42.69725 -89.94624 36654 ft 437 kts 188°
2026-05-05 00:51 42.63703 -89.94968 36654 ft 436 kts 190°
2026-05-05 00:52 42.57664 -89.95429 36649 ft 436 kts 190°
2026-05-05 00:52 42.51630 -89.95871 36650 ft 435 kts 190°
2026-05-05 00:53 42.45564 -89.96294 36651 ft 436 kts 189°
2026-05-05 00:53 42.39508 -89.96700 36650 ft 434 kts 189°
2026-05-05 00:54 42.33488 -89.97096 36649 ft 435 kts 189°
2026-05-05 00:54 42.27448 -89.97490 36646 ft 435 kts 189°
2026-05-05 00:55 42.21435 -89.97876 36645 ft 435 kts 189°
2026-05-05 00:55 42.15385 -89.98268 36638 ft 436 kts 189°
2026-05-05 00:56 42.09333 -89.98659 36633 ft 436 kts 189°
2026-05-05 00:56 42.03289 -89.99047 36630 ft 435 kts 189°
2026-05-05 00:57 41.97220 -89.99436 36636 ft 435 kts 189°
2026-05-05 00:57 41.91175 -89.99825 36635 ft 435 kts 189°
2026-05-05 00:58 41.85119 -90.00218 36630 ft 437 kts 189°
2026-05-05 00:58 41.79031 -90.00609 36631 ft 439 kts 189°
2026-05-05 00:59 41.72917 -90.00993 36632 ft 437 kts 188°
2026-05-05 00:59 41.66860 -90.01379 36633 ft 441 kts 189°
2026-05-05 01:00 41.60729 -90.01772 36630 ft 440 kts 189°
2026-05-05 01:00 41.54615 -90.02158 36639 ft 441 kts 188°
2026-05-05 01:01 41.48451 -90.02547 36642 ft 444 kts 188°
2026-05-05 01:01 41.42276 -90.02938 36641 ft 443 kts 188°
2026-05-05 01:02 41.36108 -90.03331 36640 ft 445 kts 188°
2026-05-05 01:02 41.29960 -90.03719 36641 ft 442 kts 188°
2026-05-05 01:03 41.23814 -90.04105 36639 ft 444 kts 188°
2026-05-05 01:03 41.17660 -90.04497 36633 ft 447 kts 188°
2026-05-05 01:04 41.11422 -90.04398 36634 ft 453 kts 179°
2026-05-05 01:04 41.02058 -90.01849 36634 ft 462 kts 171°
2026-05-05 01:05 40.95861 -89.99646 36628 ft 460 kts 170°
2026-05-05 01:05 40.89722 -89.97461 36627 ft 459 kts 170°
2026-05-05 01:06 40.83548 -89.95309 36635 ft 460 kts 170°
2026-05-05 01:06 40.77320 -89.93171 36635 ft 461 kts 170°
2026-05-05 01:07 40.71154 -89.91067 36641 ft 457 kts 170°
2026-05-05 01:07 40.64990 -89.88975 36640 ft 460 kts 170°
2026-05-05 01:08 40.58789 -89.86880 36641 ft 459 kts 170°
2026-05-05 01:08 40.52636 -89.84804 36642 ft 459 kts 170°
2026-05-05 01:09 40.46423 -89.82707 36648 ft 460 kts 170°
2026-05-05 01:09 40.40277 -89.80634 36654 ft 460 kts 170°
2026-05-05 01:10 40.34079 -89.78551 36654 ft 459 kts 170°
2026-05-05 01:10 40.27891 -89.76480 36657 ft 458 kts 170°
2026-05-05 01:11 40.21726 -89.74418 36658 ft 458 kts 169°
2026-05-05 01:11 40.15543 -89.72354 36662 ft 460 kts 169°
2026-05-05 01:12 40.09383 -89.70303 36672 ft 458 kts 169°
2026-05-05 01:12 40.03192 -89.68241 36676 ft 460 kts 169°
2026-05-05 01:13 39.97008 -89.66190 36664 ft 458 kts 169°
2026-05-05 01:13 39.90836 -89.64146 36679 ft 459 kts 169°
2026-05-05 01:14 39.84674 -89.62106 36689 ft 458 kts 169°
2026-05-05 01:14 39.78503 -89.60068 36681 ft 459 kts 170°
2026-05-05 01:15 39.72310 -89.58028 36691 ft 461 kts 170°
2026-05-05 01:15 39.66075 -89.55974 36686 ft 460 kts 170°
2026-05-05 01:16 39.59884 -89.53941 36699 ft 460 kts 170°
2026-05-05 01:16 39.53684 -89.51911 36700 ft 460 kts 171°
2026-05-05 01:17 39.47492 -89.49889 36703 ft 463 kts 171°
2026-05-05 01:17 39.41241 -89.47845 36709 ft 463 kts 171°
2026-05-05 01:18 39.35028 -89.45818 36721 ft 463 kts 171°
2026-05-05 01:18 39.28748 -89.43774 36727 ft 464 kts 171°
2026-05-05 01:19 39.22504 -89.41749 36720 ft 464 kts 171°
2026-05-05 01:19 39.16215 -89.39712 36729 ft 465 kts 171°
2026-05-05 01:20 39.09939 -89.37685 36733 ft 466 kts 171°
2026-05-05 01:20 39.03623 -89.35641 36723 ft 467 kts 171°
2026-05-05 01:21 38.97327 -89.33612 36739 ft 466 kts 172°
2026-05-05 01:21 38.91072 -89.31598 36737 ft 469 kts 172°
2026-05-05 01:22 38.84716 -89.29555 36742 ft 470 kts 173°
2026-05-05 01:22 38.78322 -89.27509 36748 ft 473 kts 173°
2026-05-05 01:23 38.71968 -89.25478 36742 ft 473 kts 173°
2026-05-05 01:23 38.65574 -89.23437 36732 ft 476 kts 173°
2026-05-05 01:24 38.59154 -89.21388 36750 ft 472 kts 173°
2026-05-05 01:24 38.52755 -89.19347 36756 ft 476 kts 173°
2026-05-05 01:25 38.46281 -89.17299 36761 ft 480 kts 173°
2026-05-05 01:25 38.39803 -89.15245 36757 ft 480 kts 173°
2026-05-05 01:26 38.33274 -89.13143 36763 ft 484 kts 173°
2026-05-05 01:26 38.26716 -89.11022 36773 ft 486 kts 173°
2026-05-05 01:27 38.20190 -89.08906 36791 ft 486 kts 173°
2026-05-05 01:27 38.13571 -89.06772 36770 ft 486 kts 173°
2026-05-05 01:28 38.06966 -89.04649 36780 ft 490 kts 173°
2026-05-05 01:28 38.00380 -89.02536 36778 ft 489 kts 174°
2026-05-05 01:29 37.93742 -89.00428 36807 ft 491 kts 173°
2026-05-05 01:29 37.87096 -88.98313 36767 ft 493 kts 172°
2026-05-05 01:30 37.80683 -88.94903 36800 ft 513 kts 151°
2026-05-05 01:30 37.77891 -88.92055 36787 ft 521 kts 140°
2026-05-05 01:30 37.75324 -88.88796 36803 ft 524 kts 136°
2026-05-05 01:31 37.70465 -88.82014 36805 ft 523 kts 133°
2026-05-05 01:31 37.65688 -88.75131 36789 ft 521 kts 134°
2026-05-05 01:32 37.60906 -88.68293 36797 ft 520 kts 133°
2026-05-05 01:32 37.56108 -88.61530 36806 ft 520 kts 134°
2026-05-05 01:33 37.51257 -88.54752 36829 ft 521 kts 134°
2026-05-05 01:33 37.46431 -88.48042 36802 ft 521 kts 133°
2026-05-05 01:34 37.41556 -88.41268 36822 ft 519 kts 134°
2026-05-05 01:34 37.36715 -88.34562 36838 ft 521 kts 134°
2026-05-05 01:35 37.31836 -88.27813 36845 ft 520 kts 135°
2026-05-05 01:35 37.26990 -88.21116 36846 ft 519 kts 134°
2026-05-05 01:36 37.22151 -88.14448 36849 ft 518 kts 135°
2026-05-05 01:36 37.17271 -88.07744 36886 ft 520 kts 135°
2026-05-05 01:37 37.12451 -88.01131 36834 ft 515 kts 134°
2026-05-05 01:37 37.07579 -87.94460 36855 ft 518 kts 134°
2026-05-05 01:38 37.02725 -87.87830 36857 ft 517 kts 135°
2026-05-05 01:38 36.97853 -87.81190 36869 ft 517 kts 135°
2026-05-05 01:39 36.93011 -87.74602 36851 ft 516 kts 134°
2026-05-05 01:39 36.88151 -87.68006 36872 ft 519 kts 135°
2026-05-05 01:40 36.83277 -87.61404 36870 ft 518 kts 134°
2026-05-05 01:40 36.78378 -87.54776 36895 ft 519 kts 134°
2026-05-05 01:41 36.73489 -87.48174 36883 ft 516 kts 135°
2026-05-05 01:41 36.68622 -87.41621 36886 ft 520 kts 135°
2026-05-05 01:42 36.63721 -87.35038 36895 ft 518 kts 135°
2026-05-05 01:42 36.58794 -87.28423 36909 ft 518 kts 135°
2026-05-05 01:43 36.53898 -87.21864 36873 ft 516 kts 135°
2026-05-05 01:43 36.48971 -87.15279 36892 ft 520 kts 135°
2026-05-05 01:44 36.44044 -87.08714 36888 ft 518 kts 135°
2026-05-05 01:44 36.39152 -87.02208 36891 ft 517 kts 135°
2026-05-05 01:45 36.34219 -86.95661 36891 ft 519 kts 135°
2026-05-05 01:45 36.29325 -86.89175 36910 ft 518 kts 135°
2026-05-05 01:46 36.24381 -86.82639 36921 ft 517 kts 134°
2026-05-05 01:46 36.19451 -86.76135 36921 ft 520 kts 135°
2026-05-05 01:47 36.14366 -86.69861 36911 ft 515 kts 142°
2026-05-05 01:47 36.08558 -86.64677 36919 ft 512 kts 152°
2026-05-05 01:48 36.02396 -86.60247 36916 ft 513 kts 155°
2026-05-05 01:48 35.96143 -86.55973 36944 ft 513 kts 155°
2026-05-05 01:49 35.89961 -86.51736 36556 ft 502 kts 155°
2026-05-05 01:49 35.86917 -86.49631 35987 ft 501 kts 154°
2026-05-05 01:49 35.83931 -86.47555 35819 ft 490 kts 154°
2026-05-05 01:50 35.80967 -86.45490 35286 ft 490 kts 154°
2026-05-05 01:50 35.78027 -86.43439 35089 ft 481 kts 154°
2026-05-05 01:50 35.75144 -86.41425 34860 ft 476 kts 153°
2026-05-05 01:50 35.72251 -86.39400 34439 ft 471 kts 154°
2026-05-05 01:51 35.69430 -86.37411 34058 ft 466 kts 153°
2026-05-05 01:51 35.66626 -86.35420 33686 ft 460 kts 153°
2026-05-05 01:51 35.63868 -86.33458 33164 ft 458 kts 154°
2026-05-05 01:51 35.61118 -86.31505 32956 ft 457 kts 154°
2026-05-05 01:52 35.55479 -86.27519 32969 ft 471 kts 153°
2026-05-05 01:52 35.49724 -86.23461 32956 ft 482 kts 153°
2026-05-05 01:53 35.43927 -86.19347 32948 ft 475 kts 152°
2026-05-05 01:53 35.38471 -86.14682 32977 ft 480 kts 144°
2026-05-05 01:54 35.33241 -86.09536 32968 ft 484 kts 143°
2026-05-05 01:54 35.28054 -86.04350 32988 ft 486 kts 143°
2026-05-05 01:55 35.22732 -85.99119 32985 ft 489 kts 143°
2026-05-05 01:55 35.17383 -85.93961 33001 ft 491 kts 144°
2026-05-05 01:56 35.11975 -85.88789 33016 ft 493 kts 144°
2026-05-05 01:56 35.06570 -85.83639 33015 ft 496 kts 144°
2026-05-05 01:57 35.01136 -85.78466 32835 ft 490 kts 144°
2026-05-05 01:57 34.98455 -85.75912 32135 ft 486 kts 144°
2026-05-05 01:57 34.95831 -85.73414 31470 ft 479 kts 144°
2026-05-05 01:58 34.93233 -85.70943 30871 ft 471 kts 144°
2026-05-05 01:58 34.90660 -85.68501 30149 ft 466 kts 144°
2026-05-05 01:58 34.88108 -85.66079 29466 ft 458 kts 144°
2026-05-05 01:58 34.85615 -85.63715 28678 ft 454 kts 144°
2026-05-05 01:59 34.83124 -85.61357 27932 ft 448 kts 144°
2026-05-05 01:59 34.80690 -85.59055 27236 ft 444 kts 144°
2026-05-05 01:59 34.78281 -85.56779 26686 ft 440 kts 144°
2026-05-05 01:59 34.75864 -85.54495 26161 ft 436 kts 144°
2026-05-05 02:00 34.73442 -85.52206 25294 ft 441 kts 144°
2026-05-05 02:00 34.71011 -85.49915 24466 ft 444 kts 144°
2026-05-05 02:00 34.68613 -85.47652 24093 ft 436 kts 144°
2026-05-05 02:00 34.66235 -85.45409 24018 ft 435 kts 144°
2026-05-05 02:01 34.63802 -85.43117 24010 ft 442 kts 144°
2026-05-05 02:01 34.61383 -85.40841 24010 ft 440 kts 144°
2026-05-05 02:01 34.58966 -85.38567 24012 ft 439 kts 144°
2026-05-05 02:01 34.56577 -85.36321 24012 ft 440 kts 144°
2026-05-05 02:02 34.54140 -85.34032 24010 ft 440 kts 145°
2026-05-05 02:02 34.51715 -85.31755 24011 ft 439 kts 144°
2026-05-05 02:02 34.49306 -85.29497 24011 ft 439 kts 144°
2026-05-05 02:02 34.46876 -85.27221 24009 ft 440 kts 144°
2026-05-05 02:03 34.44466 -85.24964 24001 ft 434 kts 144°
2026-05-05 02:03 34.42135 -85.22777 23819 ft 417 kts 144°
2026-05-05 02:03 34.39881 -85.20663 23419 ft 404 kts 144°
2026-05-05 02:03 34.37678 -85.18598 22850 ft 398 kts 144°
2026-05-05 02:04 34.35527 -85.16588 22241 ft 393 kts 144°
2026-05-05 02:04 34.33360 -85.14566 21554 ft 389 kts 145°
2026-05-05 02:04 34.31248 -85.12598 20965 ft 384 kts 145°
2026-05-05 02:04 34.29149 -85.10641 20342 ft 379 kts 145°
2026-05-05 02:05 34.27068 -85.08704 19716 ft 375 kts 145°
2026-05-05 02:05 34.25032 -85.06809 19133 ft 370 kts 145°
2026-05-05 02:05 34.23003 -85.04921 18500 ft 366 kts 145°
2026-05-05 02:05 34.20986 -85.03041 17876 ft 362 kts 145°
2026-05-05 02:06 34.19014 -85.01205 17249 ft 359 kts 145°
2026-05-05 02:06 34.17066 -84.99393 16693 ft 355 kts 145°
2026-05-05 02:06 34.15113 -84.97581 16166 ft 351 kts 145°
2026-05-05 02:06 34.13187 -84.95787 15630 ft 348 kts 144°
2026-05-05 02:07 34.11298 -84.94004 15106 ft 345 kts 144°
2026-05-05 02:07 34.09429 -84.92227 14579 ft 341 kts 144°
2026-05-05 02:07 34.07566 -84.90454 14061 ft 338 kts 144°
2026-05-05 02:07 34.05726 -84.88708 13567 ft 335 kts 144°
2026-05-05 02:08 34.03915 -84.86993 13154 ft 332 kts 144°
2026-05-05 02:08 34.02119 -84.85294 12986 ft 326 kts 144°
2026-05-05 02:08 34.00317 -84.83594 12971 ft 331 kts 144°
2026-05-05 02:08 33.98516 -84.81895 12967 ft 321 kts 144°
2026-05-05 02:09 33.96815 -84.80285 12967 ft 305 kts 144°
2026-05-05 02:09 33.95182 -84.78740 12968 ft 292 kts 144°
2026-05-05 02:09 33.93563 -84.77216 12976 ft 295 kts 144°
2026-05-05 02:09 33.91957 -84.75706 12977 ft 297 kts 144°
2026-05-05 02:10 33.90307 -84.74155 12979 ft 297 kts 144°
2026-05-05 02:10 33.88679 -84.72624 12982 ft 296 kts 144°
2026-05-05 02:10 33.87072 -84.71111 12983 ft 296 kts 144°
2026-05-05 02:10 33.85439 -84.69575 12982 ft 296 kts 144°
2026-05-05 02:11 33.83824 -84.68057 12986 ft 297 kts 144°
2026-05-05 02:11 33.82190 -84.66523 12981 ft 295 kts 144°
2026-05-05 02:11 33.80595 -84.65026 12985 ft 284 kts 144°
2026-05-05 02:11 33.79082 -84.63602 12981 ft 270 kts 144°
2026-05-05 02:12 33.77636 -84.62243 12986 ft 258 kts 144°
2026-05-05 02:12 33.74824 -84.59579 12944 ft 255 kts 141°
2026-05-05 02:12 33.73668 -84.57975 12536 ft 260 kts 121°
2026-05-05 02:13 33.73196 -84.55862 12112 ft 263 kts 94°
2026-05-05 02:13 33.73212 -84.53705 11754 ft 261 kts 89°
2026-05-05 02:13 33.73267 -84.51511 11357 ft 260 kts 90°
2026-05-05 02:13 33.73292 -84.49384 11002 ft 258 kts 91°
2026-05-05 02:14 33.73296 -84.47229 10620 ft 256 kts 91°
2026-05-05 02:14 33.73293 -84.45091 10223 ft 256 kts 91°
2026-05-05 02:14 33.73289 -84.42990 9866 ft 253 kts 91°
2026-05-05 02:14 33.73288 -84.40868 9532 ft 250 kts 91°
2026-05-05 02:15 33.73289 -84.38795 9168 ft 248 kts 91°
2026-05-05 02:15 33.73289 -84.36739 8813 ft 246 kts 91°
2026-05-05 02:15 33.73290 -84.34687 8426 ft 246 kts 92°
2026-05-05 02:15 33.73290 -84.32639 8062 ft 244 kts 92°
2026-05-05 02:16 33.73289 -84.30614 7687 ft 243 kts 92°
2026-05-05 02:16 33.73291 -84.28599 7367 ft 239 kts 92°
2026-05-05 02:16 33.73294 -84.26611 6910 ft 241 kts 92°
2026-05-05 02:16 33.73296 -84.24604 6510 ft 240 kts 92°
2026-05-05 02:17 33.73299 -84.22632 6139 ft 238 kts 92°
2026-05-05 02:17 33.73296 -84.20639 5757 ft 235 kts 94°
2026-05-05 02:17 33.72898 -84.18777 5351 ft 229 kts 123°
2026-05-05 02:17 33.71807 -84.17500 4972 ft 221 kts 155°
2026-05-05 02:18 33.70343 -84.17029 4593 ft 215 kts 174°
2026-05-05 02:18 33.68861 -84.16968 4243 ft 211 kts 192°
2026-05-05 02:18 33.67595 -84.17744 4000 ft 207 kts 219°
2026-05-05 02:18 33.66513 -84.18901 3989 ft 208 kts 220°
2026-05-05 02:19 33.65540 -84.20100 3980 ft 191 kts 236°
2026-05-05 02:19 33.65139 -84.21582 3780 ft 187 kts 263°
2026-05-05 02:19 33.65146 -84.23088 3679 ft 176 kts 268°
2026-05-05 02:19 33.65180 -84.24518 3533 ft 166 kts 264°
2026-05-05 02:20 33.65163 -84.25873 3540 ft 163 kts 265°
2026-05-05 02:20 33.65122 -84.27271 3346 ft 172 kts 262°
2026-05-05 02:20 33.65065 -84.28676 3148 ft 164 kts 264°
2026-05-05 02:20 33.65049 -84.30030 2959 ft 160 kts 264°
2026-05-05 02:21 33.65033 -84.31361 2686 ft 161 kts 265°
2026-05-05 02:21 33.65023 -84.32697 2397 ft 158 kts 266°
2026-05-05 02:21 33.65001 -84.33997 2209 ft 148 kts 267°
2026-05-05 02:21 33.64983 -84.35197 2078 ft 145 kts 267°
2026-05-05 02:22 33.64979 -84.36402 1873 ft 144 kts 270°
2026-05-05 02:22 33.64977 -84.37593 1681 ft 144 kts 268°
2026-05-05 02:22 33.64968 -84.38797 1449 ft 145 kts 269°
2026-05-05 02:22 33.64959 -84.40002 1223 ft 144 kts 269°
2026-05-05 02:23 33.64955 -84.41202 1036 ft 138 kts 269°
2026-05-05 02:23 33.64952 -84.42248 1013 ft 103 kts 270°
2026-05-05 02:23 33.64952 -84.42839 1017 ft 41 kts 270°
2026-05-05 02:23 33.64945 -84.43085 1021 ft 25 kts 257°
2026-05-05 02:24 33.64897 -84.43255 1023 ft 10 kts 244°
2026-05-05 02:24 33.64867 -84.43323 1023 ft 8 kts 244°
2026-05-05 02:24 33.64848 -84.43387 1023 ft 7 kts 259°
2026-05-05 02:24 33.64844 -84.43441 1023 ft 5 kts 269°
2026-05-05 02:25 33.64840 -84.43504 1024 ft 10 kts 251°
2026-05-05 02:25 33.64785 -84.43555 1025 ft 10 kts 210°
2026-05-05 02:25 33.64696 -84.43617 1026 ft 19 kts 210°
2026-05-05 02:25 33.64610 -84.43676 1027 ft 7 kts 210°
2026-05-05 02:26 33.64550 -84.43717 1023 ft 11 kts 210°
2026-05-05 02:26 33.64483 -84.43764 1023 ft 10 kts 211°
2026-05-05 02:26 33.64429 -84.43787 1023 ft 7 kts 184°
2026-05-05 02:26 33.64379 -84.43799 1023 ft 6 kts 235°
2026-05-05 02:27 33.64375 -84.43839 1023 ft 3 kts 270°
2026-05-05 02:27 33.64375 -84.43860 1023 ft 1 kts 271°
2026-05-05 02:27 33.64375 -84.43866 1023 ft 0 kts 270°